Find Starlink 6090

NORAD ID: 56095 Int'l Des: 2023-046 Owner: SPXS Country: US Constellation: starlink operational
LEOCIRCULAR

Live Position

Loading 3D Globe...

About Starlink 6090

Description loading...

Upcoming Passes

Passes for default location (London). Set your location on the main map for personalized predictions.

Altitude History

Loading altitude history...

Two-Line Element Set

1 56095U 23046C 26121.57932560 .00000936 00000-0 43546-4 0 9993
2 56095 43.0020 222.5776 0001325 274.6652 85.4048 15.27577438170129
Epoch: May 1, 2026 • Age: 24 hours

Current Status

Altitude 486.8 km
Velocity 7.63 km/s
Sub-Earth Point 41.94°N, 105.26°W
Launch Date Mar 29, 2023
Age 3 years
Type internet

Technical Details

Classification Payload
Mass 305.00 kg
Dry Mass 290.00 kg
Total Mass 305.00 kg
Length 0.20 m
Diameter 2.80 m
Span 9.00 m
Shape Box + pan
Manufacturer SPXS
Bus Type Starlink
Phase Status In Orbit
Owner/State SPXS/US

Most Searched